TimeCDT,TemperatureF,Dew PointF,Humidity,Sea Level PressureIn,VisibilityMPH,Wind Direction,Wind SpeedMPH,Gust SpeedMPH,PrecipitationIn,Events,Conditions,WindDirDegrees,DateUTC
12:15 AM,68.5,56.7,66,29.94,10.0,South,9.2,-,N/A,,Overcast,180,2013-10-12 05:15:00
12:35 AM,68.0,56.8,67,29.93,10.0,South,9.2,-,N/A,,Mostly Cloudy,190,2013-10-12 05:35:00
12:55 AM,68.4,57.2,67,29.94,10.0,South,8.1,-,N/A,,Mostly Cloudy,180,2013-10-12 05:55:00
1:15 AM,68.7,57.4,67,29.94,10.0,South,8.1,-,N/A,,Overcast,180,2013-10-12 06:15:00
1:35 AM,68.2,57.6,69,29.94,10.0,South,8.1,-,N/A,,Overcast,170,2013-10-12 06:35:00
1:55 AM,68.0,57.7,70,29.94,10.0,South,8.1,-,N/A,,Overcast,180,2013-10-12 06:55:00
2:15 AM,68.0,57.7,70,29.95,10.0,South,8.1,-,N/A,,Overcast,180,2013-10-12 07:15:00
2:35 AM,67.5,57.9,71,29.95,10.0,South,6.9,-,N/A,,Overcast,180,2013-10-12 07:35:00
2:55 AM,67.1,58.1,73,29.95,10.0,South,8.1,-,N/A,,Scattered Clouds,180,2013-10-12 07:55:00
3:15 AM,66.6,58.1,74,29.94,10.0,South,6.9,-,N/A,,Clear,170,2013-10-12 08:15:00
3:35 AM,66.2,58.1,75,29.93,10.0,SSE,8.1,-,N/A,,Clear,160,2013-10-12 08:35:00
3:55 AM,65.7,58.1,77,29.93,10.0,South,5.8,-,N/A,,Clear,170,2013-10-12 08:55:00
4:15 AM,65.3,58.1,77,29.93,10.0,South,6.9,-,N/A,,Clear,170,2013-10-12 09:15:00
4:35 AM,64.8,58.1,79,29.94,10.0,South,4.6,-,N/A,,Clear,180,2013-10-12 09:35:00
4:55 AM,63.9,58.1,81,29.94,10.0,South,4.6,-,N/A,,Scattered Clouds,170,2013-10-12 09:55:00
5:44 AM,64.4,59.0,83,29.94,10.0,SSE,4.6,-,N/A,,Mostly Cloudy,160,2013-10-12 10:44:00
6:05 AM,64.4,59.0,83,29.95,10.0,South,3.5,-,N/A,,Mostly Cloudy,180,2013-10-12 11:05:00
6:15 AM,63.1,58.8,86,29.96,10.0,South,5.8,-,N/A,,Mostly Cloudy,180,2013-10-12 11:15:00
6:35 AM,63.0,58.8,86,29.96,10.0,SSW,4.6,-,N/A,,Scattered Clouds,200,2013-10-12 11:35:00
6:55 AM,62.4,58.6,87,29.96,10.0,South,4.6,-,N/A,,Clear,190,2013-10-12 11:55:00
7:15 AM,61.7,58.5,89,29.96,7.0,SSW,3.5,-,N/A,,Clear,200,2013-10-12 12:15:00
7:35 AM,61.7,59.0,91,29.95,7.0,SSE,3.5,-,N/A,,Clear,160,2013-10-12 12:35:00
7:55 AM,63.3,59.9,89,29.97,7.0,South,4.6,-,N/A,,Clear,190,2013-10-12 12:55:00
8:15 AM,65.5,60.3,83,29.99,10.0,SW,6.9,-,N/A,,Clear,220,2013-10-12 13:15:00
8:35 AM,65.8,60.4,83,30.00,10.0,SW,5.8,-,N/A,,Scattered Clouds,230,2013-10-12 13:35:00
8:55 AM,66.4,60.8,82,30.00,10.0,WSW,6.9,-,N/A,,Overcast,240,2013-10-12 13:55:00
9:15 AM,66.9,61.0,81,30.02,10.0,West,8.1,-,N/A,,Overcast,260,2013-10-12 14:15:00
9:35 AM,67.1,61.2,81,30.02,10.0,WNW,9.2,-,N/A,,Overcast,290,2013-10-12 14:35:00
9:55 AM,65.5,57.0,74,30.03,10.0,NW,11.5,16.1,N/A,,Overcast,310,2013-10-12 14:55:00
10:15 AM,63.3,51.3,65,30.04,10.0,NW,9.2,-,N/A,,Overcast,310,2013-10-12 15:15:00
10:35 AM,62.8,50.0,63,30.05,10.0,NW,11.5,-,N/A,Rain,Light Rain,310,2013-10-12 15:35:00
10:55 AM,62.1,49.1,62,30.06,10.0,NW,10.4,-,N/A,,Overcast,320,2013-10-12 15:55:00
11:15 AM,62.6,48.7,60,30.06,10.0,NNW,5.8,-,N/A,,Overcast,330,2013-10-12 16:15:00
11:35 AM,66.7,47.8,51,30.07,10.0,North,6.9,-,N/A,,Mostly Cloudy,350,2013-10-12 16:35:00
11:55 AM,68.7,47.8,47,30.07,10.0,North,5.8,-,N/A,,Scattered Clouds,350,2013-10-12 16:55:00
12:15 PM,70.5,46.6,42,30.07,10.0,NW,6.9,-,N/A,,Clear,320,2013-10-12 17:15:00
12:35 PM,71.1,45.9,40,30.08,10.0,West,6.9,-,N/A,,Clear,280,2013-10-12 17:35:00
12:55 PM,72.0,45.1,38,30.08,10.0,NW,10.4,-,N/A,,Clear,310,2013-10-12 17:55:00
1:15 PM,72.9,44.4,36,30.08,10.0,West,6.9,-,N/A,,Clear,280,2013-10-12 18:15:00
1:35 PM,73.9,41.9,32,30.07,10.0,WNW,6.9,-,N/A,,Clear,300,2013-10-12 18:35:00
1:55 PM,74.1,40.5,30,30.08,10.0,West,13.8,17.3,N/A,,Clear,280,2013-10-12 18:55:00
2:15 PM,74.1,38.7,28,30.08,10.0,NW,9.2,-,N/A,,Clear,310,2013-10-12 19:15:00
2:35 PM,73.8,38.3,28,30.08,10.0,WNW,12.7,17.3,N/A,,Clear,290,2013-10-12 19:35:00
2:55 PM,74.5,37.9,27,30.08,10.0,West,9.2,16.1,N/A,,Clear,270,2013-10-12 19:55:00
3:15 PM,74.3,37.0,26,30.09,10.0,West,11.5,17.3,N/A,,Clear,280,2013-10-12 20:15:00
3:35 PM,75.0,36.7,25,30.09,10.0,WNW,13.8,18.4,N/A,,Clear,290,2013-10-12 20:35:00
3:55 PM,73.8,37.0,26,30.10,10.0,NW,12.7,17.3,N/A,,Clear,310,2013-10-12 20:55:00
4:15 PM,73.4,37.0,27,30.10,10.0,WNW,10.4,-,N/A,,Clear,300,2013-10-12 21:15:00
4:35 PM,73.2,37.8,28,30.10,10.0,WNW,10.4,17.3,N/A,,Clear,290,2013-10-12 21:35:00
4:55 PM,72.5,35.4,26,30.11,10.0,WNW,10.4,17.3,N/A,,Clear,290,2013-10-12 21:55:00
5:15 PM,72.0,35.2,26,30.11,10.0,WNW,9.2,-,N/A,,Clear,290,2013-10-12 22:15:00
5:35 PM,71.2,34.5,26,30.11,10.0,NW,9.2,-,N/A,,Clear,310,2013-10-12 22:35:00
5:55 PM,70.0,32.7,25,30.12,10.0,NW,6.9,-,N/A,,Clear,310,2013-10-12 22:55:00
6:15 PM,67.8,34.0,29,30.12,10.0,NW,8.1,-,N/A,,Clear,310,2013-10-12 23:15:00
6:35 PM,64.0,36.0,35,30.13,10.0,WNW,5.8,-,N/A,,Clear,300,2013-10-12 23:35:00
6:55 PM,61.3,37.2,41,30.14,10.0,WNW,5.8,-,N/A,,Clear,300,2013-10-12 23:55:00
7:15 PM,59.4,37.9,45,30.15,10.0,WNW,6.9,-,N/A,,Clear,300,2013-10-13 00:15:00
7:35 PM,58.8,38.3,47,30.16,10.0,NW,6.9,-,N/A,,Clear,310,2013-10-13 00:35:00
7:55 PM,56.5,39.4,53,30.17,10.0,WNW,5.8,-,N/A,,Clear,300,2013-10-13 00:55:00
8:15 PM,56.5,38.8,52,30.17,10.0,WNW,3.5,-,N/A,,Clear,290,2013-10-13 01:15:00
8:35 PM,52.0,41.9,69,30.18,10.0,WNW,6.9,-,N/A,,Clear,290,2013-10-13 01:35:00
8:55 PM,52.9,40.8,64,30.19,10.0,WNW,6.9,-,N/A,,Clear,290,2013-10-13 01:55:00
9:15 PM,52.9,41.0,64,30.20,10.0,WNW,4.6,-,N/A,,Clear,300,2013-10-13 02:15:00
9:35 PM,50.4,41.9,73,30.21,10.0,WNW,5.8,-,N/A,,Clear,290,2013-10-13 02:35:00
9:55 PM,50.9,41.0,69,30.22,10.0,WNW,8.1,-,N/A,,Clear,300,2013-10-13 02:55:00
10:15 PM,50.4,41.4,71,30.23,10.0,WNW,6.9,-,N/A,,Clear,300,2013-10-13 03:15:00
10:35 PM,50.5,41.0,70,30.23,10.0,NW,8.1,-,N/A,,Clear,310,2013-10-13 03:35:00
10:55 PM,51.4,40.5,66,30.24,10.0,NW,6.9,-,N/A,,Clear,310,2013-10-13 03:55:00
11:15 PM,50.5,40.3,68,30.24,10.0,NW,6.9,-,N/A,,Clear,310,2013-10-13 04:15:00
11:35 PM,50.0,40.3,69,30.25,10.0,WNW,5.8,-,N/A,,Clear,290,2013-10-13 04:35:00
11:55 PM,49.5,40.1,70,30.25,10.0,NW,4.6,-,N/A,,Clear,310,2013-10-13 04:55:00